Weather History for Newton, KS

Change the Weather History Date:

Tuesday, February 5, 2013

  Actual Average Record
Temperature  
Mean Temperature 44 °F -  
Max Temperature 62 °F 39 °F 66 °F (2009)
Min Temperature 26 °F 22 °F 0 °F (2014)
Degree Days  
Heating Degree Days 21    
Moisture  
Dew Point 24 °F    
Average Humidity 52    
Maximum Humidity 80    
Minimum Humidity 24    
Precipitation  
Precipitation 0.00 in - - ()
Sea Level Pressure  
Sea Level Pressure 30.00 in    
Wind  
Wind Speed 9 mph (NE)    
Max Wind Speed 15 mph    
Max Gust Speed 18 mph    
Visibility 10 miles    
Events      
Averages and records for this station are not official NWS values.
T = Trace of Precipitation, MM = Missing Value Source: NWS Daily Summary

Daily Weather History Graph

Daily Weather History Graph

Search for Another Location

Airport:

Trip Planner

Search our weather history database for the weather conditions in past years. The results will help you decide how hot, cold, wet, or windy it might be!

Date:

Astronomy

Feb. 05, 2013 Rise Set
Actual Time 7:29 AM CST 5:57 PM CST
Civil Twilight 7:02 AM CST 6:24 PM CST
Nautical Twilight 6:30 AM CST 6:55 PM CST
Astronomical Twilight 6:00 AM CST 7:26 PM CST
Moon 3:11 AM CST (2/5) 1:17 PM CST (2/5)
Length of Visible Light 11h 22m
Length of Day
10h 27m
Waning Crescent, 26% of the Moon is Illuminated
Feb 5
Waning Crescent
Feb 10
New
Feb 17
First Quarter
Feb 25
Full
Mar 4
Last Quarter

Hourly Weather History & Observations

Time (CST) Temp. Windchill Dew Point Humidity Pressure Visibility Wind Dir Wind Speed Gust Speed Precip Events Conditions
12:15 AM 26.6 °F 17.5 °F 19.4 °F 74% 29.93 in 10.0 mi SSE 9.2 mph - N/A   Clear
12:35 AM 26.6 °F 17.5 °F 21.2 °F 80% 29.92 in 10.0 mi SE 9.2 mph - N/A   Clear
12:55 AM 26.6 °F 17.5 °F 21.2 °F 80% 29.93 in 10.0 mi SSE 9.2 mph - N/A   Clear
1:15 AM 28.4 °F 20.4 °F 21.2 °F 74% 29.92 in 10.0 mi SSE 8.1 mph - N/A   Clear
1:35 AM 28.4 °F 20.4 °F 21.2 °F 74% 29.93 in 10.0 mi SSE 8.1 mph - N/A   Clear
1:55 AM 28.4 °F 19.7 °F 21.2 °F 74% 29.93 in 10.0 mi South 9.2 mph - N/A   Clear
2:15 AM 28.4 °F 20.4 °F 21.2 °F 74% 29.93 in 10.0 mi South 8.1 mph - N/A   Clear
2:35 AM 28.4 °F 19.1 °F 21.2 °F 74% 29.93 in 10.0 mi South 10.4 mph - N/A   Clear
2:55 AM 28.4 °F 21.2 °F 21.2 °F 74% 29.92 in 10.0 mi South 6.9 mph - N/A   Clear
3:15 AM 26.6 °F 17.5 °F 19.4 °F 74% 29.92 in 10.0 mi South 9.2 mph - N/A   Clear
3:35 AM 26.6 °F 17.5 °F 19.4 °F 74% 29.92 in 10.0 mi South 9.2 mph - N/A   Clear
3:55 AM 26.6 °F 19.1 °F 21.2 °F 80% 29.92 in 10.0 mi SSW 6.9 mph - N/A   Clear
4:15 AM 28.4 °F 21.2 °F 21.2 °F 74% 29.92 in 10.0 mi SSW 6.9 mph - N/A   Clear
4:35 AM 28.4 °F 22.2 °F 21.2 °F 74% 29.92 in 10.0 mi SW 5.8 mph - N/A   Clear
4:55 AM 28.4 °F 21.2 °F 21.2 °F 74% 29.93 in 10.0 mi SW 6.9 mph - N/A   Clear
5:15 AM 28.4 °F 20.4 °F 21.2 °F 74% 29.93 in 10.0 mi WSW 8.1 mph - N/A   Clear
5:35 AM 28.4 °F 19.7 °F 21.2 °F 74% 29.94 in 10.0 mi WSW 9.2 mph - N/A   Clear
5:55 AM 28.4 °F 19.1 °F 21.2 °F 74% 29.94 in 10.0 mi WSW 10.4 mph - N/A   Clear
6:15 AM 28.4 °F 19.7 °F 21.2 °F 74% 29.96 in 10.0 mi WNW 9.2 mph - N/A   Clear
6:35 AM 26.6 °F 16.8 °F 21.2 °F 80% 29.96 in 10.0 mi West 10.4 mph - N/A   Clear
6:55 AM 28.4 °F 19.1 °F 23.0 °F 80% 29.97 in 10.0 mi West 10.4 mph - N/A   Clear
7:15 AM 30.2 °F 21.9 °F 23.0 °F 75% 29.98 in 10.0 mi West 9.2 mph - N/A   Clear
7:35 AM 28.4 °F 20.4 °F 23.0 °F 80% 29.99 in 10.0 mi West 8.1 mph - N/A   Clear
7:55 AM 28.4 °F 20.4 °F 23.0 °F 80% 29.99 in 10.0 mi WSW 8.1 mph - N/A   Clear
8:15 AM 30.2 °F 21.3 °F 24.8 °F 80% 29.98 in 10.0 mi SW 10.4 mph - N/A   Clear
8:35 AM 33.8 °F 26.4 °F 24.8 °F 70% 29.99 in 10.0 mi SW 9.2 mph - N/A   Clear
8:55 AM 37.4 °F 30.3 °F 26.6 °F 65% 29.99 in 10.0 mi WSW 10.4 mph - N/A   Clear
9:15 AM 42.8 °F 38.0 °F 26.6 °F 53% 30.00 in 10.0 mi WNW 8.1 mph - N/A   Clear
9:35 AM 42.8 °F 37.5 °F 26.6 °F 53% 30.00 in 10.0 mi West 9.2 mph - N/A   Clear
9:55 AM 44.6 °F 39.2 °F 26.6 °F 49% 30.01 in 10.0 mi West 10.4 mph - N/A   Clear
10:15 AM 46.4 °F 40.7 °F 26.6 °F 46% 30.01 in 10.0 mi WNW 12.7 mph - N/A   Clear
10:35 AM 48.2 °F - 26.6 °F 43% 30.01 in 10.0 mi WNW 10.4 mph - N/A   Clear
10:55 AM 51.8 °F - 26.6 °F 38% 30.02 in 10.0 mi WNW 10.4 mph - N/A   Clear
11:15 AM 53.6 °F - 28.4 °F 38% 30.03 in 10.0 mi NNW 9.2 mph - N/A   Clear
11:35 AM 53.6 °F - 28.4 °F 38% 30.03 in 10.0 mi NNW 8.1 mph - N/A   Clear
11:55 AM 55.4 °F - 30.2 °F 38% 30.03 in 10.0 mi NNW 10.4 mph - N/A   Clear
12:15 PM 59.0 °F - 28.4 °F 31% 30.03 in 10.0 mi North 9.2 mph - N/A   Clear
12:35 PM 60.8 °F - 28.4 °F 29% 30.02 in 10.0 mi NNE 10.4 mph - N/A   Clear
12:55 PM 60.8 °F - 26.6 °F 27% 30.02 in 10.0 mi North 12.7 mph 18.4 mph N/A   Clear
1:15 PM 60.8 °F - 26.6 °F 27% 30.02 in 10.0 mi North 10.4 mph - N/A   Clear
1:35 PM 60.8 °F - 26.6 °F 27% 30.02 in 10.0 mi North 15.0 mph - N/A   Clear
1:55 PM 60.8 °F - 26.6 °F 27% 30.02 in 10.0 mi North 12.7 mph - N/A   Clear
2:15 PM 60.8 °F - 26.6 °F 27% 30.01 in 10.0 mi North 8.1 mph - N/A   Clear
2:35 PM 60.8 °F - 26.6 °F 27% 30.01 in 10.0 mi North 10.4 mph - N/A   Clear
2:55 PM 60.8 °F - 24.8 °F 25% 30.01 in 10.0 mi NNE 5.8 mph - N/A   Clear
3:15 PM 60.8 °F - 24.8 °F 25% 30.00 in 10.0 mi NNE 9.2 mph - N/A   Clear
3:35 PM 60.8 °F - 24.8 °F 25% 30.00 in 10.0 mi NE 6.9 mph - N/A   Clear
3:55 PM 60.8 °F - 24.8 °F 25% 30.00 in 10.0 mi Calm Calm - N/A   Clear
4:15 PM 62.6 °F - 24.8 °F 24% 30.00 in 10.0 mi North 6.9 mph - N/A   Clear
4:35 PM 60.8 °F - 24.8 °F 25% 30.00 in 10.0 mi North 5.8 mph - N/A   Clear
4:55 PM 60.8 °F - 24.8 °F 25% 30.00 in 10.0 mi NNE 4.6 mph - N/A   Clear
5:15 PM 59.0 °F - 24.8 °F 27% 30.00 in 10.0 mi NE 5.8 mph - N/A   Clear
5:35 PM 55.4 °F - 24.8 °F 31% 30.00 in 10.0 mi East 3.5 mph - N/A   Clear
5:55 PM 55.4 °F - 24.8 °F 31% 30.01 in 10.0 mi NE 4.6 mph - N/A   Clear
6:15 PM 55.4 °F - 23.0 °F 29% 30.01 in 10.0 mi NE 4.6 mph - N/A   Clear
6:35 PM 53.6 °F - 23.0 °F 30% 30.02 in 10.0 mi NE 5.8 mph - N/A   Clear
6:55 PM 51.8 °F - 23.0 °F 33% 30.03 in 10.0 mi NE 8.1 mph - N/A   Clear
7:15 PM 50.0 °F - 23.0 °F 35% 30.03 in 10.0 mi ENE 6.9 mph - N/A   Clear
7:35 PM 44.6 °F 42.2 °F 21.2 °F 39% 30.03 in 10.0 mi East 4.6 mph - N/A   Clear
7:55 PM 48.2 °F - 24.8 °F 40% 30.04 in 10.0 mi ENE 6.9 mph - N/A   Clear
8:15 PM 46.4 °F 43.5 °F 24.8 °F 43% 30.05 in 10.0 mi ENE 5.8 mph - N/A   Clear
8:35 PM 42.8 °F 38.6 °F 23.0 °F 46% 30.05 in 10.0 mi ENE 6.9 mph - N/A   Clear
8:55 PM 39.2 °F 34.2 °F 21.2 °F 49% 30.05 in 10.0 mi ENE 6.9 mph - N/A   Clear
9:15 PM 37.4 °F 32.1 °F 21.2 °F 52% 30.06 in 10.0 mi East 6.9 mph - N/A   Clear
9:35 PM 37.4 °F 32.1 °F 21.2 °F 52% 30.06 in 10.0 mi East 6.9 mph - N/A   Clear
9:55 PM 37.4 °F 32.1 °F 21.2 °F 52% 30.06 in 10.0 mi East 6.9 mph - N/A   Clear
10:15 PM 37.4 °F 32.1 °F 23.0 °F 56% 30.06 in 10.0 mi East 6.9 mph - N/A   Clear
10:35 PM 37.4 °F 32.1 °F 21.2 °F 52% 30.06 in 10.0 mi East 6.9 mph - N/A   Clear
10:55 PM 35.6 °F 29.9 °F 21.2 °F 56% 30.06 in 10.0 mi ESE 6.9 mph - N/A   Clear
11:15 PM 37.4 °F 31.4 °F 24.8 °F 60% 30.06 in 10.0 mi ESE 8.1 mph - N/A   Clear
11:35 PM 37.4 °F 30.8 °F 24.8 °F 60% 30.06 in 10.0 mi ESE 9.2 mph - N/A   Clear
11:55 PM 39.2 °F 34.2 °F 26.6 °F 61% 30.06 in 10.0 mi ESE 6.9 mph - N/A   Clear